El Granada, CA

8:32 PM PST on February 10, 2016 (GMT -0800)
Half Moon Bay

Weather History for KHAF - July, 2013

Change the Weather History Date:

Saturday, July 6, 2013

  Actual Average Record
Temperature  
Mean Temperature 56 °F -  
Max Temperature 59 °F 63 °F 66 °F (2015)
Min Temperature 53 °F 50 °F 48 °F (2012)
Degree Days  
Heating Degree Days 9    
Growing Degree Days 6 (Base 50)    
Moisture  
Dew Point 53 °F    
Average Humidity 89    
Maximum Humidity 100    
Minimum Humidity 82    
Precipitation  
Precipitation 0.00 in - - ()
Sea Level Pressure  
Sea Level Pressure 29.83 in    
Wind  
Wind Speed 7 mph (SSW)    
Max Wind Speed 13 mph    
Max Gust Speed 16 mph    
Visibility 4 miles    
Events      
Averages and records for this station are not official NWS values.
T = Trace of Precipitation, MM = Missing Value Source: NWS Daily Summary

Daily Weather History Graph

Daily Weather History Graph

Search for Another Location

Airport or City:

Trip Planner

Search our weather history database for the weather conditions in past years. The results will help you decide how hot, cold, wet, or windy it might be!

Date:

Astronomy

Jul. 06, 2013 Rise Set
Actual Time 5:55 AM PDT 8:34 PM PDT
Civil Twilight 5:24 AM PDT 9:04 PM PDT
Nautical Twilight 4:46 AM PDT 9:43 PM PDT
Astronomical Twilight 4:03 AM PDT 10:26 PM PDT
Moon 4:44 AM PDT (7/6) 7:20 PM PDT (7/6)
Length of Visible Light 15h 40m
Length of Day
14h 38m
Waning Crescent, 2% of the Moon is Illuminated
Jul 6
Waning Crescent
Jul 8
New
Jul 15
First Quarter
Jul 22
Full
Jul 29
Last Quarter

Hourly Weather History & Observations

Time (PDT) Temp. Dew Point Humidity Pressure Visibility Wind Dir Wind Speed Gust Speed Precip Events Conditions
12:15 AM 55.4 °F 51.8 °F 88% 29.82 in 5.0 mi SW 5.8 mph - N/A   Mist
12:35 AM 55.4 °F 50.0 °F 82% 29.82 in 5.0 mi SSW 5.8 mph - N/A   Mist
12:55 AM 55.4 °F 51.8 °F 88% 29.82 in 5.0 mi South 5.8 mph - N/A   Mist
1:15 AM 55.4 °F 50.0 °F 82% 29.82 in 5.0 mi SSW 6.9 mph - N/A   Mist
1:35 AM 55.4 °F 50.0 °F 82% 29.82 in 4.0 mi South 6.9 mph - N/A   Mist
1:55 AM 55.4 °F 50.0 °F 82% 29.82 in 5.0 mi South 6.9 mph - N/A   Mist
2:15 AM 55.4 °F 50.0 °F 82% 29.82 in 5.0 mi South 6.9 mph - N/A   Mist
2:35 AM 55.4 °F 51.8 °F 88% 29.82 in 4.0 mi SSW 5.8 mph - N/A   Mist
2:55 AM 55.4 °F 51.8 °F 88% 29.82 in 3.0 mi South 6.9 mph - N/A   Mist
3:15 AM 55.4 °F 51.8 °F 88% 29.82 in 4.0 mi SSW 6.9 mph - N/A   Mist
3:35 AM 55.4 °F 51.8 °F 88% 29.82 in 3.0 mi SSW 6.9 mph - N/A   Mist
3:55 AM 53.6 °F 51.8 °F 94% 29.82 in 3.0 mi SSW 6.9 mph - N/A   Mist
4:15 AM 53.6 °F 51.8 °F 94% 29.82 in 4.0 mi SSW 5.8 mph - N/A   Mist
4:35 AM 53.6 °F 51.8 °F 94% 29.82 in 3.0 mi SSW 5.8 mph - N/A   Mist
4:55 AM 53.6 °F 51.8 °F 94% 29.82 in 3.0 mi South 8.1 mph - N/A   Mist
5:15 AM 53.6 °F 51.8 °F 94% 29.82 in 3.0 mi SSW 6.9 mph - N/A   Overcast
5:35 AM 53.6 °F 51.8 °F 94% 29.82 in 3.0 mi South 6.9 mph - N/A   Overcast
5:55 AM 53.6 °F 51.8 °F 94% 29.83 in 4.0 mi North - - N/A   Overcast
6:15 AM 53.6 °F 51.8 °F 94% 29.83 in 2.5 mi North - - N/A   Overcast
6:35 AM 53.6 °F 51.8 °F 94% 29.83 in 1.2 mi North - - N/A   Overcast
6:55 AM 53.6 °F 51.8 °F 94% 29.83 in 2.5 mi SSW 8.1 mph - N/A   Overcast
7:15 AM 53.6 °F 51.8 °F 94% 29.83 in 2.5 mi SSW 6.9 mph - N/A   Overcast
7:35 AM 53.6 °F 51.8 °F 94% 29.84 in 2.0 mi SSW 6.9 mph - N/A   Overcast
7:55 AM 53.6 °F 53.6 °F 100% 29.84 in 1.8 mi SSW 9.2 mph - N/A   Overcast
8:15 AM 53.6 °F 51.8 °F 94% 29.84 in 3.0 mi SSW 8.1 mph - N/A   Overcast
8:35 AM 53.6 °F 51.8 °F 94% 29.84 in 3.0 mi SSW 9.2 mph - N/A   Overcast
8:55 AM 55.4 °F 51.8 °F 88% 29.85 in 5.0 mi South 9.2 mph - N/A   Mostly Cloudy
9:15 AM 55.4 °F 51.8 °F 88% 29.85 in 4.0 mi South 8.1 mph - N/A   Mostly Cloudy
9:35 AM 55.4 °F 51.8 °F 88% 29.85 in 4.0 mi South 8.1 mph - N/A   Mostly Cloudy
9:55 AM 55.4 °F 51.8 °F 88% 29.86 in 5.0 mi South 8.1 mph - N/A   Overcast
10:15 AM 55.4 °F 51.8 °F 88% 29.85 in 5.0 mi SSW 8.1 mph - N/A   Overcast
10:35 AM 57.2 °F 53.6 °F 88% 29.86 in 6.0 mi South 9.2 mph - N/A   Overcast
10:55 AM 55.4 °F 53.6 °F 94% 29.86 in 4.0 mi South 9.2 mph - N/A   Mostly Cloudy
11:15 AM 57.2 °F 53.6 °F 88% 29.86 in 5.0 mi North - - N/A   Mostly Cloudy
11:35 AM 57.2 °F 53.6 °F 88% 29.86 in 5.0 mi South 10.4 mph - N/A   Mostly Cloudy
11:55 AM 57.2 °F 53.6 °F 88% 29.86 in 5.0 mi SSW 9.2 mph - N/A   Overcast
12:15 PM 57.2 °F 53.6 °F 88% 29.87 in 5.0 mi SSW 9.2 mph - N/A   Overcast
12:35 PM 57.2 °F 53.6 °F 88% 29.87 in 4.0 mi SSW 9.2 mph - N/A   Mostly Cloudy
12:55 PM 57.2 °F 53.6 °F 88% 29.87 in 4.0 mi SSW 8.1 mph - N/A   Mostly Cloudy
1:15 PM 57.2 °F 53.6 °F 88% 29.86 in 4.0 mi SSW 8.1 mph - N/A   Mostly Cloudy
1:35 PM 57.2 °F 53.6 °F 88% 29.86 in 4.0 mi SSW 8.1 mph - N/A   Mostly Cloudy
1:55 PM 57.2 °F 53.6 °F 88% 29.86 in 5.0 mi SW 10.4 mph - N/A   Overcast
2:15 PM 59.0 °F 53.6 °F 82% 29.85 in 5.0 mi SSW 9.2 mph - N/A   Haze
2:35 PM 59.0 °F 53.6 °F 82% 29.85 in 5.0 mi SW 8.1 mph - N/A   Haze
2:55 PM 59.0 °F 53.6 °F 82% 29.85 in 5.0 mi WSW 10.4 mph - N/A   Haze
3:15 PM 59.0 °F 53.6 °F 82% 29.84 in 5.0 mi WSW 9.2 mph - N/A   Haze
3:35 PM 57.2 °F 53.6 °F 88% 29.84 in 4.0 mi SW 8.1 mph - N/A   Haze
3:55 PM 57.2 °F 53.6 °F 88% 29.84 in 4.0 mi SW 9.2 mph - N/A   Haze
4:15 PM 59.0 °F 53.6 °F 82% 29.83 in 5.0 mi SW 8.1 mph - N/A   Haze
4:35 PM 59.0 °F 53.6 °F 82% 29.83 in 5.0 mi SW 8.1 mph - N/A   Haze
4:55 PM 57.2 °F 53.6 °F 88% 29.83 in 4.0 mi WSW 6.9 mph - N/A   Mostly Cloudy
5:15 PM 57.2 °F 53.6 °F 88% 29.82 in 3.0 mi SW 5.8 mph - N/A   Haze
5:35 PM 57.2 °F 53.6 °F 88% 29.82 in 3.0 mi WSW 5.8 mph - N/A   Partly Cloudy
5:55 PM 57.2 °F 53.6 °F 88% 29.81 in 3.0 mi SW 6.9 mph - N/A   Scattered Clouds
6:15 PM 57.2 °F 53.6 °F 88% 29.81 in 3.0 mi North - - N/A   Mostly Cloudy
6:35 PM 57.2 °F 53.6 °F 88% 29.81 in 4.0 mi North - - N/A   Overcast
6:55 PM 57.2 °F 53.6 °F 88% 29.81 in 3.0 mi North - - N/A   Overcast
7:15 PM 55.4 °F 51.8 °F 88% 29.81 in 5.0 mi North - - N/A   Overcast
7:35 PM 55.4 °F 51.8 °F 88% 29.81 in 4.0 mi North - - N/A   Overcast
7:55 PM 55.4 °F 51.8 °F 88% 29.81 in 5.0 mi South 8.1 mph - N/A   Overcast
8:15 PM 55.4 °F 51.8 °F 88% 29.81 in 5.0 mi North - - N/A   Overcast
8:35 PM 55.4 °F 51.8 °F 88% 29.81 in 5.0 mi North - - N/A   Overcast
8:55 PM 55.4 °F 51.8 °F 88% 29.82 in 6.0 mi South 8.1 mph - N/A   Overcast
9:15 PM 55.4 °F 53.6 °F 94% 29.82 in 5.0 mi SSW 8.1 mph - N/A   Overcast
9:35 PM 55.4 °F 53.6 °F 94% 29.82 in 5.0 mi SSW 6.9 mph - N/A   Overcast
9:55 PM 55.4 °F 53.6 °F 94% 29.83 in 5.0 mi SSW 9.2 mph - N/A   Overcast
10:15 PM 55.4 °F 53.6 °F 94% 29.83 in 5.0 mi SSW 8.1 mph - N/A   Overcast
10:35 PM 55.4 °F 53.6 °F 94% 29.83 in 5.0 mi South 10.4 mph - N/A   Mist
10:55 PM 55.4 °F 53.6 °F 94% 29.83 in 6.0 mi South 12.7 mph 16.1 mph N/A   Mist
11:15 PM 55.4 °F 53.6 °F 94% 29.83 in 7.0 mi SSE 8.1 mph - N/A   Unknown
11:35 PM 55.4 °F 51.8 °F 88% 29.84 in 7.0 mi South 10.4 mph - N/A   Unknown
11:55 PM 55.4 °F 51.8 °F 88% 29.83 in 7.0 mi South 11.5 mph - N/A   Unknown